Weather History for Martinsville, VA

Change the Weather History Date:

Sunday, December 16, 2012

  Actual Average (KGSO) Record (KGSO)
Temperature  
Mean Temperature 46 °F 41 °F  
Max Temperature 51 °F 50 °F 78 °F (1971)
Min Temperature 42 °F 32 °F 5 °F (1958)
Degree Days  
Heating Degree Days 18 24  
Month to date heating degree days 355  
Since 1 July heating degree days 1035  
Cooling Degree Days 0 0  
Month to date cooling degree days 0  
Year to date cooling degree days 1483  
Moisture  
Dew Point 46 °F    
Average Humidity 94    
Maximum Humidity 100    
Minimum Humidity 41    
Precipitation  
Precipitation 0.27 in 0.09 in 1.35 in (1918)
Month to date precipitation 1.57  
Year to date precipitation 40.79  
Snow  
Snow 0.00 in 0.00 in 4.60 in (1973)
Month to date snowfall 0.2  
Since 1 July snowfall 0.3  
Snow Depth -    
Sea Level Pressure  
Sea Level Pressure 29.99 in    
Wind  
Wind Speed 1 mph (SSW)    
Max Wind Speed 12 mph    
Max Gust Speed 17 mph    
Visibility 7 miles    
Events Rain    
T = Trace of Precipitation, MM = Missing Value Source: NWS Daily Summary

Daily Weather History Graph

Daily Weather History Graph

Search for Another Location

Airport:

Trip Planner

Search our weather history database for the weather conditions in past years. The results will help you decide how hot, cold, wet, or windy it might be!

Date:

Astronomy

Dec. 16, 2012 Rise Set
Actual Time 7:25 AM EST 5:05 PM EST
Civil Twilight 6:57 AM EST 5:34 PM EST
Nautical Twilight 6:24 AM EST 6:07 PM EST
Astronomical Twilight 5:53 AM EST 6:38 PM EST
Moon 10:02 AM EST (12/16) 9:12 PM EST (12/16)
Length of Visible Light 10h 37m
Length of Day
9h 39m
Waxing Crescent, 16% of the Moon is Illuminated
Dec 16
Waxing Crescent
Dec 20
First Quarter
Dec 28
Full
Jan 4
Last Quarter
Jan 11
New

Hourly Weather History & Observations

Time (EST) Temp. Windchill Dew Point Humidity Pressure Visibility Wind Dir Wind Speed Gust Speed Precip Events Conditions
12:15 AM 50.0 °F - 28.4 °F 43% 30.07 in 10.0 mi Calm Calm - N/A   Mostly Cloudy
12:35 AM 50.0 °F - 28.4 °F 43% 30.06 in 10.0 mi Calm Calm - N/A   Overcast
1:15 AM 51.8 °F - 28.4 °F 41% 30.06 in 10.0 mi Calm Calm - N/A   Overcast
1:55 AM 50.0 °F - 32.0 °F 50% 30.07 in 10.0 mi Calm Calm - N/A   Overcast
2:15 AM 48.2 °F - 33.8 °F 58% 30.06 in 10.0 mi Calm Calm - N/A   Overcast
2:35 AM 48.2 °F - 32.0 °F 54% 30.05 in 10.0 mi Calm Calm - N/A   Mostly Cloudy
2:55 AM 46.4 °F - 35.6 °F 66% 30.07 in 10.0 mi Calm Calm - N/A Rain Light Rain
3:15 AM 44.6 °F - 39.2 °F 81% 30.07 in 10.0 mi Calm Calm - 0.01 in Rain Light Rain
3:35 AM 44.6 °F - 44.6 °F 100% 30.08 in 10.0 mi Calm Calm - 0.01 in Rain Light Rain
3:55 AM 44.6 °F - 44.6 °F 100% 30.06 in 10.0 mi Calm Calm - 0.01 in Rain Light Rain
4:15 AM 44.6 °F - 44.6 °F 100% 30.06 in 4.0 mi Calm Calm - 0.04 in Rain Rain
4:35 AM 44.6 °F - 44.6 °F 100% 30.06 in 10.0 mi Calm Calm - 0.09 in Rain Rain
4:55 AM 42.8 °F - 42.8 °F 100% 30.06 in 10.0 mi Calm Calm - N/A Rain Light Rain
5:15 AM 42.8 °F - 42.8 °F 100% 30.06 in 7.0 mi Calm Calm - N/A   Mostly Cloudy
5:35 AM 44.6 °F - 44.6 °F 100% 30.06 in 7.0 mi Calm Calm - N/A   Overcast
6:15 AM 44.6 °F - 44.6 °F 100% 30.05 in 7.0 mi Calm Calm - N/A   Overcast
6:35 AM 44.6 °F - 44.6 °F 100% 30.04 in 10.0 mi Calm Calm - N/A   Overcast
6:55 AM 44.6 °F - 44.6 °F 100% 30.06 in 7.0 mi Calm Calm - N/A   Mostly Cloudy
7:15 AM 44.6 °F - 44.6 °F 100% 30.05 in 10.0 mi Calm Calm - N/A   Overcast
7:35 AM 44.6 °F - 44.6 °F 100% 30.06 in 10.0 mi Calm Calm - N/A   Overcast
7:55 AM 44.6 °F - 44.6 °F 100% 30.05 in 7.0 mi Calm Calm - N/A   Overcast
8:15 AM 44.6 °F 43.1 °F 44.6 °F 100% 30.03 in 5.0 mi SE 3.5 mph - N/A   Scattered Clouds
8:35 AM 44.6 °F - 44.6 °F 100% 30.05 in 7.0 mi Calm Calm - N/A   Scattered Clouds
8:55 AM 44.6 °F - 44.6 °F 100% 30.03 in 10.0 mi Calm Calm - N/A   Scattered Clouds
9:15 AM 46.4 °F - 44.6 °F 93% 30.04 in 10.0 mi Calm Calm - N/A   Clear
9:35 AM 46.4 °F - 42.8 °F 87% 30.05 in 10.0 mi Calm Calm - N/A   Scattered Clouds
9:55 AM 48.2 °F - 42.8 °F 82% 30.02 in 10.0 mi Calm Calm - N/A Rain Light Rain
10:15 AM 46.4 °F 43.5 °F 46.4 °F 100% 30.06 in 10.0 mi NW 5.8 mph - N/A Rain Light Rain
10:35 AM 46.4 °F - 46.4 °F 100% 30.04 in 10.0 mi Calm Calm - 0.01 in Rain Light Rain
10:55 AM 46.4 °F - 46.4 °F 100% 30.02 in 5.0 mi Calm Calm - 0.01 in Rain Light Rain
11:15 AM 46.4 °F 41.1 °F 46.4 °F 100% 30.04 in 10.0 mi WNW 11.5 mph 17.3 mph 0.02 in Rain Light Rain
11:35 AM 48.2 °F - 48.2 °F 100% 30.02 in 7.0 mi NW 5.8 mph - 0.03 in Rain Light Rain
11:55 AM 48.2 °F - 48.2 °F 100% 30.00 in 7.0 mi Calm Calm - N/A Rain Rain
12:15 PM 48.2 °F - 48.2 °F 100% 30.01 in 5.0 mi Calm Calm - 0.03 in Rain Light Rain
12:35 PM 48.2 °F - 48.2 °F 100% 29.99 in 7.0 mi SW 3.5 mph - 0.03 in Rain Light Rain
12:55 PM 48.2 °F - 48.2 °F 100% 29.99 in 5.0 mi WSW 3.5 mph - 0.02 in Rain Rain
1:35 PM 48.2 °F - 48.2 °F 100% 29.97 in 5.0 mi Calm Calm - 0.04 in Rain Light Rain
1:55 PM 48.2 °F - 48.2 °F 100% 29.97 in 5.0 mi Calm Calm - N/A Rain Light Rain
2:15 PM 48.2 °F - 48.2 °F 100% 29.96 in 5.0 mi Calm Calm - 0.02 in Rain Light Rain
2:35 PM 48.2 °F - 48.2 °F 100% 29.96 in 4.0 mi South 3.5 mph - 0.03 in Rain Light Rain
2:55 PM 48.2 °F - 48.2 °F 100% 29.95 in 4.0 mi Calm Calm - N/A Rain Rain
3:15 PM 48.2 °F - 48.2 °F 100% 29.95 in 5.0 mi Calm Calm - 0.01 in   Light Drizzle
3:35 PM 48.2 °F - 48.2 °F 100% 29.95 in 4.0 mi SSW 3.5 mph - 0.01 in Rain Light Rain
3:55 PM 48.2 °F - 48.2 °F 100% 29.94 in 4.0 mi SSW 3.5 mph - 0.01 in Rain Light Rain
4:15 PM 48.2 °F - 48.2 °F 100% 29.94 in 3.0 mi SSW 3.5 mph - 0.01 in   Drizzle
4:35 PM 48.2 °F - 48.2 °F 100% 29.94 in 3.0 mi SW 4.6 mph - 0.01 in   Light Drizzle
4:55 PM 48.2 °F - 48.2 °F 100% 29.94 in 5.0 mi SW 3.5 mph - 0.01 in   Overcast
5:15 PM 48.2 °F - 48.2 °F 100% 29.93 in 5.0 mi SSW 4.6 mph - 0.01 in   Overcast
5:35 PM 48.2 °F - 48.2 °F 100% 29.93 in 5.0 mi SSW 3.5 mph - 0.01 in   Mostly Cloudy
5:55 PM 48.2 °F - 48.2 °F 100% 29.93 in 5.0 mi SW 4.6 mph - N/A   Scattered Clouds
6:15 PM 50.0 °F - 50.0 °F 100% 29.93 in 7.0 mi SW 4.6 mph - N/A   Scattered Clouds
6:35 PM 50.0 °F - 50.0 °F 100% 29.93 in 7.0 mi SW 5.8 mph - N/A   Mostly Cloudy
6:55 PM 50.0 °F - 50.0 °F 100% 29.93 in 7.0 mi SSW 4.6 mph - N/A Rain Light Rain
7:15 PM 50.0 °F - 50.0 °F 100% 29.93 in 7.0 mi SW 4.6 mph - N/A   Light Drizzle
7:35 PM 51.8 °F - 51.8 °F 100% 29.93 in 7.0 mi SSW 3.5 mph - N/A   Overcast
7:55 PM 50.0 °F - 50.0 °F 100% 29.93 in 7.0 mi SSW 3.5 mph - N/A   Overcast
8:15 PM 50.0 °F - 50.0 °F 100% 29.92 in 7.0 mi Calm Calm - N/A   Overcast
8:35 PM 50.0 °F - 50.0 °F 100% 29.91 in 7.0 mi South 3.5 mph - N/A   Overcast
8:55 PM 50.0 °F - 50.0 °F 100% 29.89 in 7.0 mi South 4.6 mph - N/A   Overcast
9:15 PM 51.8 °F - 51.8 °F 100% 29.90 in 7.0 mi South 4.6 mph - N/A   Overcast
9:35 PM 51.8 °F - 51.8 °F 100% 29.91 in 7.0 mi SSW 5.8 mph - N/A   Overcast
9:55 PM 51.8 °F - 51.8 °F 100% 29.91 in 7.0 mi South 5.8 mph - N/A   Overcast
10:15 PM 51.8 °F - 51.8 °F 100% 29.91 in 7.0 mi South 4.6 mph - N/A Rain Light Rain
10:35 PM 51.8 °F - 51.8 °F 100% 29.92 in 7.0 mi SW 4.6 mph - N/A   Mostly Cloudy
10:55 PM 51.8 °F - 51.8 °F 100% 29.91 in 7.0 mi SSW 4.6 mph - N/A   Overcast
11:15 PM 51.8 °F - 51.8 °F 100% 29.92 in 7.0 mi SSW 3.5 mph - N/A   Light Drizzle
11:35 PM 51.8 °F - 51.8 °F 100% 29.92 in 7.0 mi SSW 4.6 mph - N/A Rain Light Rain
11:55 PM 51.8 °F - 51.8 °F 100% 29.92 in 7.0 mi Calm Calm - N/A Rain Light Rain